Location: Luxembourg
(49.6117°N, 6.1300°E)
Time: 05:47:38
(UTC+01:00)

DOVE 4 - Visible Passes

Search period start: 20 March 2019 00:00
Search period end: 30 March 2019 00:00
Orbit: 589 x 803 km, 97.7° (Epoch: 19 March)

Date Brightness Start Highest point End Pass type
(mag) Time Alt. Az. Time Alt. Az. Time Alt. Az.
20 Mar ? 02:33:53 10° ENE 02:35:23 12° E 02:35:23 12° E visible
20 Mar ? 04:09:30 10° NNE 04:14:01 82° WNW 04:14:08 80° WSW visible
20 Mar ? 05:49:07 10° NNW 05:50:52 12° NW 05:52:35 10° WNW visible
21 Mar ? 03:12:56 10° NNE 03:16:37 28° E 03:16:37 28° E visible
21 Mar ? 04:50:30 10° N 04:54:31 34° WNW 04:55:22 31° W visible
22 Mar ? 03:53:15 10° NNE 03:57:40 71° ESE 03:57:51 69° ESE visible
22 Mar ? 05:32:07 10° NNW 05:34:47 16° WNW 05:36:36 13° W visible
23 Mar ? 02:57:04 10° NE 03:00:18 20° E 03:00:19 20° E visible
23 Mar ? 04:34:04 10° N 04:38:18 47° WNW 04:39:04 41° WSW visible
24 Mar ? 03:37:03 10° NNE 03:41:18 48° E 03:41:33 48° ESE visible
24 Mar ? 05:15:24 10° NNW 05:18:39 21° WNW 05:20:18 17° W visible
25 Mar ? 02:41:29 10° NE 02:43:47 14° E 02:44:02 14° E visible
25 Mar ? 04:17:42 10° N 04:22:02 67° WNW 04:22:47 54° SW visible
26 Mar ? 03:20:57 10° NNE 03:24:53 33° E 03:25:16 33° ESE visible
26 Mar ? 04:58:48 10° N 05:02:29 28° WNW 05:04:01 22° W visible
27 Mar ? 04:01:23 10° NNE 04:05:43 86° ESE 04:06:30 59° S visible
27 Mar ? 05:40:45 10° NNW 05:42:43 13° NW 05:44:39 10° W visible
28 Mar ? 03:04:58 10° NE 03:08:26 24° E 03:08:58 23° ESE visible
28 Mar ? 04:42:18 10° N 04:46:16 38° WNW 04:47:44 28° WSW visible
29 Mar ? 03:45:08 10° NNE 03:49:21 59° E 03:50:12 48° SSE visible
29 Mar ? 05:23:48 10° NNW 05:26:35 17° WNW 05:28:57 11° W visible
